Location: Murphys Corner
(39.1062°N, 77.8244°W)
Time: 20:11:06
(UTC+00:00)

Envisat - Pass Details

Date: 12 February 2023
Orbit: 763 x 765 km, 98.2° (Epoch: 24 March)

Event Time Altitude Azimuth Distance (km) Brightness Sun altitude
Rises 08:28:51 0° 24° (NNE) 3,237 6.7 -42.4°
Reaches altitude 10° 08:31:26 10° 35° (NE) 2,306 5.9 -42.0°
Enters shadow 08:31:33 11° 35° (NE) 2,265 5.9 -42.0°
